Location: Bovenkerk
(52.2915°N, 4.8336°E)
Time: 13:24:15
(UTC+00:00)

Cosmos 2228 - Pass Details

Date: 09 April 2020
Orbit: 588 x 619 km, 82.5° (Epoch: 27 May)

Event Time Altitude Azimuth Distance (km) Brightness Sun altitude
Rises 19:07:40 0° 183° (S) 2,842 6.3 -6.4°
Reaches altitude 10° 19:09:52 10° 182° (S) 1,949 5.4 -6.7°
Maximum altitude 19:14:10 73° 98° (E) 642 3.0 -7.3°
Drops below altitude 10° 19:18:32 10° 14° (NNE) 1,984 5.8 -7.9°
Sets 19:20:47 0° 13° (NNE) 2,898 6.7 -8.2°
